Regional Weather Roundup
Issued by NWS Green Bay, WI

Home | Current Version | Previous Version | Graphics & Text | Print | Product List | Glossary Off
Versions: 1 2 3 4 5 6 7 8 9 10 11 12 13 14 15 16 17 18 19 20 21 22 23 24 25 26 27 28 29 30 31 32 33 34 35 36 37 38 39 40 41 42 43 44 45 46 47 48 49 50

000
ASUS43 KGRB 310011
RWRGRB

NORTH-CENTRAL AND NORTHEAST WISCONSIN REGIONAL WEATHER ROUNDUP
NATIONAL WEATHER SERVICE GREEN BAY WI
700 PM CDT MON MAY 30 2016

WIZ005-009-010>012-018-019-310100-
NORTH CENTRAL WISCONSIN

CITY           SKY/WX    TMP DP  RH WIND       PRES   REMARKS
IRONWOOD       SUNNY     73  45  35 NE7       29.94S
MANITOWISH WTR NOT AVBL
ARBOR VITAE    PTSUNNY   76  48  37 CALM      29.98S
EAGLE RIVER      N/A     73  41  31 CALM      29.98R
LAND O LAKES   SUNNY     74  40  28 N7        29.99R
RHINELANDER    MOSUNNY   75  48  38 CALM      29.99R
PHILLIPS       PTSUNNY   76  52  43 W3        29.96S
ANTIGO         SUNNY     74  54  49 CALM      29.98S
TOMAHAWK       SUNNY     75  49  38 W5        29.98R
MERRILL        SUNNY     77  50  39 W5        29.98S
$$

WIZ013-073-310100-
NORTHEAST WISCONSIN

CITY           SKY/WX    TMP DP  RH WIND       PRES   REMARKS
IRON MOUNTAIN  SUNNY     77  41  27 NW9       29.95R
MARINETTE      MOSUNNY   79  47  32 N5        29.95R
OCONTO         MOSUNNY   78  50  36 W3        29.94S
$$

WIZ017-030-035>037-045-310100-
CENTRAL WISCONSIN

CITY           SKY/WX    TMP DP  RH WIND       PRES   REMARKS
MEDFORD        SUNNY     75  54  48 SW6       29.98R
WAUSAU         SUNNY     78  49  35 SW6       29.96S
MOSINEE        SUNNY     75  48  38 W5        29.99S
MARSHFIELD     SUNNY     79  47  32 CALM      29.96F
WISC RAPIDS    MOSUNNY   80  44  27 NE6       29.98S
STEVENS POINT  SUNNY     76  46  34 NW3       29.98S
WAUPACA        SUNNY     81  46  29 W5        29.97S
SHAWANO        SUNNY     80  46  30 W3        29.96S
CLINTONVILLE   SUNNY     79  45  29 W3        29.96S
WAUTOMA        SUNNY    N/A N/A N/A N6        29.97S
$$

WIZ038-039-048-051-310100-
FOX VALLEY

CITY           SKY/WX    TMP DP  RH WIND       PRES   REMARKS
NWS GREEN BAY  SUNNY     80  51  36 W3        29.96S
APPLETON       MOSUNNY   77  43  29 CALM      29.96S
OSHKOSH        SUNNY     76  52  43 SE7       29.97S
FOND DU LAC    SUNNY     80  47  31 CALM      29.97S
$$

WIZ022-050-052-310100-
EAST CENTRAL WISCONSIN

CITY           SKY/WX    TMP DP  RH WIND       PRES   REMARKS
EPHRAIM        FAIR      72  57  58 S5        29.95R
STURGEON BAY   NOT AVBL
MANITOWOC      SUNNY     66  56  70 SE8       29.99R
SHEBOYGAN      SUNNY     73  56  54 S9        29.98S
$$

LMZ563-521-522-541>543-310100-
LAKESHORE

STATION/POSITION TIME  TEMP    WIND        PRES    VSBY  WAVE
                       AIR SEA DIR/SP/G                  HT/PER
                 (UTC) (F)     (DEG/KT/KT) (MB)    (MI)  (FT/S)
SHEBOYGAN LKSHOR 0000   67     180/ 12/ 13 1015.5R
KEWAUNEE LKSHORE 2300   60                   N/A
NORTHPORT PIER   2300   69     170/  7/ 12 1013.9S
N MID LAKE BUOY  2350   53 50  210/ 10/ 10 1013.7F         1/ 3
CHAMBERS ISLAND  2300   74     140/  3/  6 1013.5F
MENOMINEE LKSHOR 2300   73                   N/A
$$




USA.gov is the U.S. government's official web portal to all federal, state and local government web resources and services.